SCP
0 0 0 0 0 0 0 0 0 0 0 0 0 0 0 0 0 0 0 0 0 0 0 0 0 0 0 0 0 0 0 0 0 0 0 0 0 0 0 0 0 0 0
0 0 0 0 0 0 0 0 0 0 0 0 0 0 0 0 0 0 0 0 0 0 0 0 0 0 0 0 0 0 0 0 0 0 0 0 0 0 0 0 0 0 0
0 0 0 0 0 0 0 0 0 0 0 0 0 0 0 0 0 0 0 0 0 0 0 0 0 0 0 0 0 0 0 0 0 0 0 0 0 0 0 0 0 0 0
0 0 0 0 0 0 0 0 0 0 0 0 0 0 0 0 0 0 0 0 0 0 0 0 0 0 0 0 0 0 0 0 0 0 0 0 0 0 0 0 0 0 0
0 0 0 0 0 0 0 0 0 0 0 0 0 0 0 0 0 0 0 0 0 0 0 0 0 0 0 0 0 0 0 0 0 0 0 0 0 0 0 0 0 0 0
0 0 0 0 0 0 0 0 0 0 0 0 0 0 0 0 0 0 0 0 0 0 0 0 0 0 0 0 0 0 0 0 0 0 0 0 0 0 0 0 0 0 0
0 0 0 0 0 0 0 0 0 0 0 0 0 0 0 0 0 0 0 0 0 0 0 0 0 0 0 0 0 0 0 0 0 0 0 0 0 0 0 0 0 0 0
0 0 0 0 0 0 0 -0 -0 0 0 0 0 0 0 0 0 0 0 0 0 0 0 0 0 0 0 0 0 0 0 0 0 0 0 0 0 0 0 0 0 0 0
0 0 0 0 0 0 -0 -0 -0 -0 0 0 0 0 0 0 0 0 0 0 0 0 0 0 0 0 0 0 0 0 0 0 0 0 0 0 0 0 0 0 0 0 0
0 0 0 0 0 0 -0 -0 -0 0 0 0 0 0 0 0 0 0 0 0 0 0 0 0 0 0 0 0 0 0 0 0 0 0 0 0 0 0 0 0 0 0 0
0 0 0 0 0 0 0 0 0 0 0 0 0 0 0 0 0 0 0 0 0 0 0 0 0 0 0 0 0 0 0 0 0 0 0 0 0 0 0 0 0 0 0
0 0 0 0 0 0 0 0 0 0 0 0 0 0 0 0 0 0 0 0 0 0 0 0 0 0 0 0 0 0 0 0 0 0 0 0 0 0 0 0 0 0 0
0 0 0 0 0 0 0 0 0 0 0 0 0 0 0 0 0 0 0 0 0 0 0 0 0 0 0 0 0 0 0 0 0 0 0 0 0 0 0 0 0 0 0
0 0 0 0 0 0 0 0 0 0 0 0 0 0 0 0 0 0 0 0 0 0 0 0 0 0 0 0 0 0 0 0 0 0 0 0 0 0 0 0 0 0 0
0 0 0 0 0 0 0 0 0 0 0 0 0 0 0 0 0 0 0 0 0 0 0 0 0 0 0 0 0 0 0 0 0 0 0 0 0 0 0 0 0 0 0
0 0 0 0 0 0 0 0 -0 0 0 0 0 0 0 0 0 0 0 0 0 0 0 0 0 0 0 0 0 0 0 0 0 0 0 0 0 0 0 0 0 0 0
0 0 0 0 0 0 0 0 -0 0 0 0 0 0 0 0 0 0 0 0 0 0 0 0 0 0 0 0 0 0 0 0 0 0 0 0 0 0 0 0 0 0 0
0 0 0 0 0 0 0 0 0 0 0 0 0 0 0 0 0 0 0 0 0 0 0 0 0 0 0 0 0 0 0 0 0 0 0 0 0 0 0 0 0 0 0
-0 -0 -0 -0 0 0 0 0 0 0 0 0 0 0 0 0 0 0 0 0 0 0 0 0 0 0 0 0 0 0 0 0 0 0 0 0 0 0 0 0 0 0 0
-0 -0 -0 -0 -0 0 0 0 0 0 0 0 0 0 0 0 0 0 0 0 0 0 0 0 0 0 0 0 0 0 0 0 0 0 0 0 0 0 0 0 0 0 0
-0 -0 -0 -0 0 0 0 0 0 0 0 0 0 0 0 0 0 0 0 0 0 0 0 0 0 0 0 0 0 0 0 0 0 0 0 0 0 0 0 0 0 0 0
-0 -0 0 0 0 0 0 0 0 0 0 0 0 0 0 0 0 0 0 0 0 0 0 0 0 0 0 0 0 0 0 0 0 0 0 0 0 0 0 0 0 0 0
0 0 0 0 0 0 0 0 0 0 0 0 0 0 0 0 0 0 0 0 0 0 0 0 0 0 0 0 0 0 0 0 0 0 0 0 0 0 0 0 0 0 0
0 0 0 0 0 0 0 0 0 0 0 0 0 0 0 0 0 0 0 0 0 0 0 0 0 0 0 0 0 0 0 0 0 0 0 0 0 0 0 0 0 0 0
0 0 0 0 0 0 0 0 0 0 0 0 0 0 0 0 0 0 0 0 0 0 0 0 0 0 0 0 0 0 0 0 0 0 0 0 0 0 0 0 0 0 0
0 0 0 0 0 0 0 0 0 0 0 0 0 0 0 0 0 0 0 0 0 0 0 0 0 0 0 0 0 0 0 0 0 0 0 0 0 0 0 0 0 0 0
Wind_Speed
9 8 8 7 8 8 8 8 8 7 5 4 4 4 6 5 5 6 8 9 8 9 9 6 8 8 8 9 10 8 9 8 6 5 5 5 7 8 7 8 8 9 9
9 9 8 8 7 8 8 8 8 7 7 5 4 5 6 5 5 5 7 9 9 10 9 9 8 9 8 10 10 9 7 6 7 6 5 4 6 7 8 8 8 9 8
10 9 8 8 8 8 8 7 7 7 7 6 4 4 5 4 5 6 6 7 8 9 9 10 10 10 10 9 11 11 11 8 8 8 6 5 5 4 6 9 8 8 8
8 8 8 8 8 8 7 7 7 7 7 6 6 7 6 7 7 6 6 7 9 10 10 10 11 10 10 11 11 11 10 10 9 8 7 6 3 4 4 6 7 9 9
7 8 8 8 8 8 7 7 7 7 7 6 6 7 7 7 6 6 8 8 8 10 10 11 10 10 10 11 12 11 12 10 10 8 7 7 5 6 4 5 6 7 8
7 7 7 7 8 7 7 7 7 7 7 7 7 8 8 8 8 8 8 7 7 7 10 11 10 11 10 11 12 12 13 11 12 10 9 8 6 6 6 6 7 7 6
7 8 8 8 7 8 7 7 7 7 7 7 7 8 9 9 9 9 8 8 7 7 10 10 10 10 11 11 12 12 12 13 13 12 10 9 9 7 6 5 5 6 4
7 8 9 9 8 8 8 8 8 7 7 7 7 8 8 7 7 9 7 8 7 8 10 11 11 11 11 11 12 10 12 12 13 14 13 9 9 8 7 6 5 5 5
8 8 9 9 8 8 8 8 8 8 7 7 7 8 8 8 8 9 8 7 8 7 10 10 11 11 11 12 12 10 12 12 13 13 13 10 8 7 7 7 6 6 6
8 9 8 8 8 8 8 8 7 8 7 7 7 6 7 8 8 8 8 8 9 9 9 10 11 11 11 12 12 11 12 13 12 10 12 11 8 7 7 7 6 6 6
10 9 8 8 8 8 7 7 7 6 6 6 7 7 7 7 8 7 7 8 8 9 10 10 11 11 11 12 12 12 13 14 13 12 12 12 11 8 7 6 7 6 6
9 9 9 8 8 7 7 7 7 6 6 6 6 6 6 6 6 7 7 7 8 8 9 10 10 11 11 11 12 13 12 13 13 12 12 12 9 10 8 7 8 7 7
9 9 9 8 8 7 7 6 6 6 6 6 6 5 5 6 6 6 7 7 7 8 9 10 10 10 10 10 11 11 11 12 12 11 12 12 11 11 8 9 8 6 5
9 9 9 8 7 7 6 6 6 6 6 6 6 5 6 6 6 6 6 7 7 8 8 9 9 9 9 9 10 10 10 10 10 10 10 11 11 11 10 9 8 7 6
10 9 8 7 7 7 6 6 6 6 5 6 6 6 6 5 5 6 6 6 6 7 7 7 8 8 8 8 9 8 9 9 9 9 9 10 10 10 8 7 8 7 6
10 9 8 8 8 8 6 6 6 6 5 6 6 6 5 5 5 5 5 6 6 5 5 6 7 7 6 7 9 8 6 8 9 9 9 8 9 9 10 9 10 9 8
10 9 8 8 8 7 5 5 5 5 6 6 6 6 5 5 5 5 5 6 5 4 4 4 5 6 5 6 8 7 6 7 8 8 7 6 7 9 8 8 8 8 8
9 8 8 8 7 6 5 5 5 5 5 5 5 5 5 6 5 5 6 6 4 3 3 4 4 4 4 5 6 6 6 6 7 7 7 7 7 8 8 7 6 6 5
8 8 7 7 7 6 5 5 5 5 5 5 5 5 5 5 6 6 6 5 4 3 3 3 3 4 4 4 4 5 5 4 5 6 7 7 7 8 8 7 6 5 3
7 7 7 7 7 7 5 5 5 5 5 5 6 5 5 5 6 6 6 5 3 2 2 2 2 2 2 3 3 4 3 4 3 4 5 7 7 8 8 7 7 6 5
8 7 7 6 6 6 5 5 5 6 6 6 5 5 5 5 5 6 5 3 3 2 2 2 1 1 1 2 2 2 3 3 3 3 3 4 7 7 7 6 5 6 6
8 7 7 7 6 5 5 5 6 6 6 5 5 5 5 5 4 4 4 3 2 2 1 0 1 0 0 1 2 2 1 2 3 3 3 3 7 6 5 4 6 7 6
9 8 8 8 7 5 5 6 6 5 5 5 5 5 5 5 4 4 3 3 2 1 1 0 0 1 0 1 3 2 1 1 1 2 2 4 6 5 4 6 7 6 4
8 8 8 8 7 6 6 6 6 5 5 5 5 5 4 5 4 3 2 2 1 1 1 1 1 1 1 1 1 1 2 2 2 2 4 5 5 4 4 4 3 2 3
8 7 7 8 8 7 6 6 5 4 5 5 5 4 4 4 3 3 2 2 2 2 2 2 2 2 2 2 1 1 1 1 1 2 2 2 3 2 2 2 2 2 3
8 7 8 8 7 6 6 5 4 4 4 4 4 3 3 3 2 2 2 1 2 3 3 3 3 2 2 2 2 1 1 2 3 3 2 2 2 2 2 2 2 2 3
Wind_Direction
279 280 277 276 277 275 266 255 253 257 252 244 234 243 242 234 230 236 232 228 226 217 216 213 208 208 212 212 210 208 209 210 205 207 217 228 227 224 219 218 220 222 220
288 285 284 281 274 273 271 267 257 256 250 248 241 238 240 237 234 241 235 228 226 220 215 213 210 210 213 215 213 209 209 207 201 204 204 215 219 220 219 217 218 223 219
296 292 288 285 280 273 268 266 263 262 255 248 243 239 237 234 236 237 236 229 227 225 220 219 215 212 214 215 213 208 209 206 205 209 208 208 216 199 200 211 213 216 215
299 297 292 287 282 277 272 267 262 262 258 249 241 238 238 237 241 241 237 230 230 227 221 221 220 217 216 217 216 213 210 208 207 209 224 237 236 214 195 200 209 214 217
303 301 295 288 282 280 277 271 266 264 258 249 245 241 242 244 242 240 239 232 229 226 224 221 221 219 219 219 217 215 212 211 212 210 208 220 226 231 224 213 207 214 219
304 302 301 291 286 286 282 275 269 269 263 249 246 244 246 246 245 242 238 232 229 224 225 221 223 221 220 219 217 215 215 214 215 214 213 211 211 210 218 221 211 217 219
304 307 307 298 293 290 285 280 276 271 268 258 251 247 246 244 241 243 237 236 232 226 222 221 222 222 221 220 217 217 218 217 216 215 216 218 221 218 221 220 218 222 222
300 303 303 299 294 293 287 282 276 272 267 262 260 257 250 248 240 244 241 240 238 233 227 222 224 226 224 221 219 219 219 218 218 218 217 220 221 216 216 215 213 218 224
303 304 305 303 299 293 288 282 277 271 268 264 262 259 254 254 250 250 245 244 243 239 231 227 226 226 225 221 220 220 218 219 219 219 218 218 219 216 216 212 208 213 225
312 309 309 305 302 299 293 288 281 275 272 270 266 262 258 260 259 256 251 246 243 240 235 232 230 228 227 221 219 222 220 219 218 216 217 216 216 213 214 211 209 216 225
318 317 309 305 303 304 307 306 297 284 280 272 271 267 260 260 260 255 254 249 244 239 236 234 230 228 227 220 219 221 217 218 216 212 214 215 211 208 209 206 205 210 213
317 315 316 314 310 309 308 307 304 298 293 287 281 276 274 267 263 259 259 254 247 242 238 234 231 227 226 221 220 220 217 216 212 209 211 211 206 209 208 204 206 208 209
318 316 315 313 312 313 310 307 306 302 301 300 289 286 284 279 274 272 267 260 252 248 243 233 228 226 225 223 222 219 218 215 211 209 208 206 203 209 205 202 204 205 205
316 316 315 313 315 316 314 311 310 307 308 307 298 290 287 290 289 287 280 269 260 251 247 236 228 223 222 223 221 217 216 212 207 205 205 206 206 208 202 200 200 198 197
316 317 314 315 317 317 313 315 313 312 310 305 302 299 291 294 297 296 292 284 272 260 249 239 229 221 219 218 216 216 216 208 203 203 206 206 201 203 202 195 194 193 195
315 316 315 315 315 315 312 313 310 312 310 301 303 305 298 299 302 300 298 295 287 267 247 237 230 225 222 213 214 217 214 208 203 204 202 197 195 198 198 199 198 198 197
313 310 309 311 311 309 305 305 304 307 305 306 306 307 310 307 304 305 304 305 295 279 263 246 234 226 220 206 206 212 216 213 207 200 196 194 194 193 196 193 193 202 202
306 306 309 310 312 309 301 301 299 295 300 302 303 309 312 309 308 307 305 306 296 279 270 257 246 235 223 207 203 204 211 211 205 200 197 192 194 192 188 190 193 201 202
302 302 304 307 311 309 302 299 293 295 299 302 303 304 306 307 310 307 304 306 294 281 276 257 249 238 218 185 191 197 197 193 201 199 194 191 194 182 179 183 184 187 184
305 305 306 305 304 305 301 296 299 302 298 296 297 300 303 303 303 306 308 306 289 284 286 277 261 233 203 167 178 187 182 188 194 190 189 187 187 179 178 186 184 187 179
306 304 300 297 298 302 298 294 298 296 297 298 299 303 304 300 298 305 308 303 298 288 283 290 287 244 177 142 144 173 181 179 183 188 186 180 166 173 181 193 193 182 168
303 299 296 296 300 298 289 288 289 293 297 297 297 301 306 307 307 305 306 302 296 276 281 333 350 317 160 139 123 104 174 180 181 189 184 173 163 166 173 179 164 155 153
299 298 294 294 297 293 285 284 289 294 294 294 297 302 307 308 304 303 307 307 304 299 300 336 319 292 20 123 114 116 107 134 176 157 159 163 158 153 155 151 155 158 156
294 294 290 289 294 296 288 283 289 289 286 290 296 299 300 304 308 308 302 296 297 315 329 312 297 285 209 158 122 110 103 97 97 110 129 135 133 132 138 146 148 155 157
291 289 285 286 290 295 291 288 286 284 286 290 293 296 294 298 309 310 303 288 278 288 281 276 270 242 220 204 209 191 173 140 130 118 125 129 125 123 124 122 125 132 138
289 288 285 285 288 290 290 291 288 280 282 287 291 291 291 293 301 305 322 350 311 320 311 312 308 283 244 204 177 145 122 134 151 138 136 140 140 144 144 139 127 136 143